Location: Recife
(8.0585°S, 34.8848°W)
Time: 12:14:27
(UTC-03:00)

Vanguard 2 - Visible Passes

Search period start: 14 April 2026 00:00
Search period end: 24 April 2026 00:00
Orbit: 554 x 2895 km, 32.9° (Epoch: 13 April)

Date Brightness Start Highest point End Pass type
(mag) Time Alt. Az. Time Alt. Az. Time Alt. Az.
14 Apr 11.1 01:42:40 23° SSE 01:42:40 23° SSE 01:49:28 10° SE visible
14 Apr 10.6 03:43:36 13° SW 03:53:37 28° SSE 04:01:45 10° ESE visible
14 Apr 9.8 18:58:10 10° NW 19:09:01 58° NE 19:13:54 44° E visible
14 Apr 10.6 21:06:56 10° WNW 21:14:52 43° W 21:14:52 43° W visible
15 Apr 11.1 01:53:44 25° S 01:53:44 25° S 02:02:12 10° SE visible
15 Apr 10.4 03:54:40 12° SW 04:06:14 34° SSE 04:14:31 10° ESE visible
15 Apr 9.7 19:09:43 10° NW 19:20:42 72° NE 19:25:20 52° ESE visible
15 Apr 10.8 21:19:18 10° W 21:26:17 36° W 21:26:17 36° W visible
16 Apr 11.0 02:04:51 27° S 02:04:51 27° S 02:15:06 10° ESE visible
16 Apr 10.2 04:05:46 10° SW 04:18:44 41° SSE 04:27:07 10° E visible
16 Apr 9.6 19:21:26 10° NW 19:32:31 88° NE 19:36:46 57° ESE visible
16 Apr 11.0 21:31:52 10° W 21:37:43 29° WSW 21:37:43 29° WSW visible
17 Apr 10.9 02:16:00 28° S 02:17:33 29° S 02:28:03 10° ESE visible
17 Apr 9.9 04:17:23 10° SW 04:31:04 51° SSE 04:39:31 10° E visible
17 Apr 9.9 17:26:31 10° NNW 17:34:29 37° NE 17:46:41 10° ESE visible
17 Apr 9.7 19:33:19 10° WNW 19:44:28 77° SSW 19:48:11 59° SE visible
17 Apr 11.2 21:44:38 10° W 21:49:07 23° WSW 21:49:07 23° WSW visible
18 Apr 11.7 00:26:17 12° SE 00:26:17 12° SE 00:27:10 10° SE visible
18 Apr 10.8 02:27:13 30° S 02:30:21 33° SSE 02:40:58 10° ESE visible
18 Apr 9.6 04:29:10 10° SW 04:43:16 64° SSE 04:51:43 10° ENE visible
18 Apr 9.6 17:37:46 10° NNW 17:46:03 49° NE 17:58:37 12° ESE visible
18 Apr 9.9 19:45:23 10° WNW 19:56:33 64° SSW 19:59:34 56° SSE visible
18 Apr 11.4 21:57:34 10° WSW 22:00:31 18° WSW 22:00:31 18° WSW visible
19 Apr 11.6 00:37:32 15° SE 00:37:32 15° SE 00:40:01 10° SE visible
19 Apr 10.6 02:38:29 32° SSW 02:43:02 38° SSE 02:53:46 10° E visible
19 Apr 9.4 04:41:02 10° SW 04:55:19 81° SSE 05:03:44 10° ENE visible
19 Apr 9.4 17:49:12 10° NW 17:57:40 64° NE 18:09:58 14° ESE visible
19 Apr 10.1 19:57:40 10° W 20:08:48 53° SSW 20:10:55 50° S visible
19 Apr 11.6 22:10:36 10° WSW 22:11:52 13° WSW 22:11:52 13° WSW visible
20 Apr 11.4 00:48:51 19° SE 00:48:51 19° SE 00:53:01 10° ESE visible
20 Apr 10.4 02:49:47 34° SSW 02:55:33 44° SSE 03:06:24 10° E visible
20 Apr 9.3 04:53:00 10° WSW 05:07:11 81° NW 05:15:32 10° NE visible
20 Apr 9.3 18:00:51 10° NW 18:09:24 82° NE 18:21:17 17° ESE visible
20 Apr 10.4 20:10:07 10° W 20:21:11 44° SSW 20:22:13 44° SSW visible
21 Apr 11.3 01:00:12 24° SE 01:00:12 24° SE 01:06:05 10° ESE visible
21 Apr 10.2 03:01:09 36° SSW 03:07:56 53° SSE 03:18:50 10° E visible
21 Apr 9.4 18:12:41 10° WNW 18:21:17 79° SSW 18:32:32 19° SE visible
21 Apr 10.6 20:22:46 10° W 20:33:28 37° SSW 20:33:28 37° SSW visible
22 Apr 11.1 01:11:34 29° SE 01:11:34 29° SE 01:19:06 10° ESE visible
22 Apr 9.9 03:12:32 36° SW 03:20:10 65° SSE 03:31:05 10° ENE visible
22 Apr 9.6 18:24:41 10° WNW 18:33:20 63° SSW 18:43:44 20° SE visible
22 Apr 10.8 20:35:34 10° WSW 20:44:40 32° SSW 20:44:40 32° SSW visible
23 Apr 10.9 01:22:58 35° SE 01:22:58 35° SE 01:32:00 10° E visible
23 Apr 9.8 03:23:56 36° SW 03:32:13 78° SSE 03:43:08 10° ENE visible
23 Apr 9.9 18:36:54 10° W 18:45:32 50° SSW 18:54:52 22° SE visible
23 Apr 10.9 20:48:29 10° WSW 20:55:48 27° SSW 20:55:48 27° SSW visible
